Terminal Aerodrome Forecast
Issued by NWS

Home | Current Version | Previous Version | Text Only | Print | Product List | Glossary On
Versions: 1 2 3 4 5 6 7 8 9 10 11 12 13
000
FTUS45 KRIW 270528
TAFCPR
TAF
KCPR 270528Z 2706/2806 29011KT P6SM -SHRA SCT060 OVC090
     FM271700 33010KT P6SM SCT080 SCT120
     FM280200 VRB06KT P6SM SCT120=

USA.gov is the U.S. government's official web portal to all federal, state and local government web resources and services.